331P/Gibbs (2020)

Japanese version
Home page
Updated on June 25, 2018

---------------------------------------------------------------------

* Profile

* Orbital Elements

Epoch 2020 Sept. 28.0 TT = JDT 2459120.5
T 2020 Sept. 29.61712 TT                                MPCW
q   2.8812094            (2000.0)            P               Q
n   0.18935504     Peri.  183.74364     +0.76071469     -0.64113495
a   3.0034343      Node   216.77883     +0.59983258     +0.75400477
e   0.0406951      Incl.    9.73963     +0.24802024     +0.14290831
P   5.21
From 116 observations 2004 Aug. 26-2018 May 20, mean residual 0".6.

* Magnitudes Graph

        m1 = 15.0 + 5 log d + 10.0 log r

---------------------------------------------------------------------

The orbital elements are published on M.P.E.C. 2018-K95.
The magnitudes graphs are made with Comet for Windows.

---------------------------------------------------------------------

Copyright(C) Seiichi Yoshida (comet@aerith.net). All rights reserved.